Total_Precipitation_Accumulation
0.00 0.00 0.00 0.00 0.00 0.00 0.01 0.02 0.04 0.12 0.18 0.16 0.19 0.24 0.26 0.31 0.37 0.75 0.44 0.15 0.07 0.02 0.01 0.01 0.01 0.04 0.05 0.05 0.06 0.09 0.10 0.10 0.11 0.10 0.09 0.09 0.08 0.08 0.08 0.08 0.11 0.14 0.17 0.16 0.15 0.14 0.14 0.11 0.08
0.00 0.00 0.00 0.00 0.00 0.00 0.01 0.02 0.05 0.10 0.14 0.13 0.16 0.22 0.21 0.21 0.18 0.13 0.16 0.10 0.07 0.03 0.01 0.00 0.01 0.03 0.04 0.05 0.05 0.09 0.11 0.10 0.09 0.09 0.08 0.08 0.08 0.09 0.09 0.11 0.15 0.21 0.26 0.26 0.21 0.17 0.15 0.13 0.07
0.00 0.00 0.00 0.00 0.00 0.00 0.02 0.04 0.06 0.08 0.10 0.14 0.18 0.29 0.28 0.17 0.13 0.09 0.12 0.08 0.07 0.03 0.01 0.01 0.01 0.02 0.03 0.03 0.04 0.07 0.09 0.09 0.08 0.09 0.09 0.09 0.09 0.10 0.13 0.16 0.20 0.25 0.28 0.27 0.23 0.21 0.19 0.12 0.07
0.00 0.00 0.00 0.00 0.00 0.00 0.02 0.06 0.08 0.07 0.07 0.10 0.13 0.28 0.27 0.16 0.12 0.11 0.11 0.09 0.07 0.04 0.01 0.01 0.02 0.02 0.03 0.03 0.04 0.06 0.08 0.09 0.11 0.13 0.13 0.13 0.13 0.13 0.17 0.24 0.28 0.28 0.27 0.27 0.28 0.27 0.22 0.13 0.07
0.00 0.00 0.00 0.00 0.00 0.00 0.01 0.03 0.06 0.06 0.05 0.05 0.08 0.25 0.36 0.26 0.20 0.14 0.11 0.12 0.10 0.07 0.04 0.02 0.02 0.03 0.04 0.04 0.05 0.07 0.10 0.14 0.18 0.22 0.21 0.17 0.16 0.17 0.21 0.28 0.31 0.30 0.33 0.33 0.30 0.24 0.17 0.09 0.07
0.00 0.00 0.00 0.00 0.00 0.00 0.01 0.02 0.03 0.04 0.05 0.06 0.12 0.34 0.60 0.54 0.43 0.27 0.24 0.20 0.17 0.10 0.12 0.08 0.06 0.06 0.06 0.06 0.07 0.10 0.15 0.18 0.22 0.23 0.21 0.18 0.17 0.17 0.22 0.25 0.25 0.28 0.29 0.23 0.15 0.12 0.08 0.08 0.08
0.00 0.00 0.00 0.00 0.00 0.00 0.01 0.03 0.04 0.04 0.06 0.07 0.15 0.33 0.57 0.70 0.59 0.45 0.44 0.35 0.29 0.25 0.32 0.25 0.13 0.09 0.07 0.11 0.13 0.14 0.13 0.15 0.20 0.22 0.19 0.16 0.15 0.15 0.16 0.16 0.18 0.19 0.15 0.11 0.09 0.06 0.06 0.05 0.05
0.00 0.00 0.00 0.00 0.01 0.01 0.02 0.05 0.07 0.08 0.10 0.11 0.19 0.41 0.74 0.78 0.58 0.54 0.51 0.50 0.52 0.57 0.62 0.32 0.13 0.09 0.08 0.08 0.11 0.15 0.15 0.16 0.18 0.17 0.15 0.13 0.11 0.12 0.12 0.11 0.12 0.13 0.13 0.11 0.08 0.05 0.04 0.03 0.03
0.00 0.00 0.00 0.00 0.01 0.01 0.02 0.04 0.06 0.06 0.07 0.16 0.21 0.31 0.57 0.60 0.54 0.54 0.56 0.70 0.74 0.63 0.58 0.44 0.24 0.15 0.14 0.13 0.12 0.13 0.14 0.16 0.15 0.15 0.14 0.13 0.13 0.14 0.13 0.09 0.11 0.12 0.12 0.09 0.07 0.06 0.04 0.03 0.03
0.00 0.00 0.00 0.00 0.00 0.01 0.01 0.02 0.05 0.06 0.06 0.09 0.13 0.20 0.40 0.40 0.46 0.49 0.60 0.78 0.66 0.62 0.60 0.53 0.43 0.31 0.23 0.20 0.24 0.23 0.19 0.19 0.18 0.23 0.19 0.22 0.34 0.38 0.28 0.28 0.21 0.15 0.11 0.09 0.10 0.08 0.06 0.05 0.05
0.00 0.00 0.00 0.00 0.00 0.00 0.00 0.01 0.04 0.06 0.10 0.14 0.16 0.23 0.31 0.35 0.43 0.49 0.54 0.68 0.77 0.84 0.71 0.61 0.58 0.62 0.51 0.42 0.39 0.37 0.35 0.38 0.36 0.47 0.41 0.46 0.54 0.48 0.44 0.48 0.32 0.21 0.15 0.14 0.18 0.11 0.08 0.08 0.12
0.00 0.00 0.00 0.00 0.00 0.00 0.00 0.00 0.02 0.05 0.16 0.18 0.20 0.30 0.34 0.33 0.40 0.53 0.67 0.82 0.90 0.95 0.87 0.77 0.65 0.68 0.70 0.80 0.75 0.57 0.53 0.54 0.48 0.58 0.56 0.65 0.74 0.71 0.73 0.72 0.54 0.47 0.40 0.38 0.33 0.28 0.22 0.20 0.18
0.00 0.00 0.00 0.00 0.00 0.00 0.00 0.00 0.01 0.04 0.06 0.11 0.15 0.26 0.32 0.29 0.33 0.50 0.82 1.20 1.31 1.26 1.10 0.94 0.93 0.87 0.82 0.98 0.98 0.71 0.69 0.77 0.87 0.96 0.79 0.80 0.79 0.82 0.90 0.86 0.79 0.72 0.72 0.67 0.57 0.47 0.50 0.49 0.40
0.00 0.00 0.00 0.00 0.00 0.00 0.00 0.00 0.01 0.02 0.02 0.07 0.11 0.18 0.25 0.32 0.42 0.68 1.02 1.41 1.62 1.55 1.32 1.14 1.18 1.16 1.01 1.01 1.11 1.06 0.93 1.05 1.16 1.16 1.10 1.02 1.00 1.09 1.15 1.18 1.13 0.99 0.99 0.98 0.87 0.76 0.75 0.68 0.61
0.00 0.00 0.00 0.00 0.00 0.00 0.00 0.00 0.01 0.01 0.01 0.03 0.07 0.13 0.19 0.33 0.49 0.73 1.10 1.31 1.47 1.46 1.31 1.25 1.23 1.35 1.36 1.30 1.29 1.30 1.31 1.41 1.53 1.54 1.41 1.27 1.28 1.48 1.48 1.50 1.41 1.31 1.31 1.31 1.21 1.11 1.02 0.85 0.74
0.00 0.00 0.00 0.00 0.00 0.00 0.00 0.01 0.03 0.01 0.01 0.03 0.07 0.12 0.17 0.27 0.46 0.67 0.92 1.13 1.31 1.55 1.53 1.57 1.53 1.43 1.51 1.62 1.65 1.67 1.66 1.84 1.90 1.99 1.99 1.78 1.64 1.75 1.82 1.88 1.79 1.66 1.57 1.66 1.66 1.51 1.36 1.18 1.10
0.00 0.00 0.00 0.00 0.00 0.00 0.01 0.03 0.07 0.04 0.03 0.05 0.13 0.19 0.21 0.33 0.50 0.71 0.99 1.17 1.30 1.41 1.67 1.74 1.69 1.65 1.72 1.88 1.89 2.02 2.14 2.23 2.23 2.26 2.32 2.27 2.20 2.26 2.24 2.23 2.23 2.17 2.17 2.12 1.90 1.84 1.70 1.59 1.48
0.00 0.00 0.00 0.01 0.00 0.00 0.02 0.07 0.09 0.09 0.06 0.11 0.21 0.23 0.30 0.40 0.52 0.69 1.00 1.40 1.56 1.56 1.59 1.76 1.87 1.89 1.94 2.18 2.23 2.27 2.40 2.59 2.76 2.94 3.05 2.90 2.87 2.81 2.89 2.84 2.73 2.66 2.59 2.42 2.32 2.20 2.01 1.83 1.67
0.00 0.00 0.00 0.01 0.01 0.01 0.04 0.07 0.10 0.11 0.09 0.16 0.22 0.21 0.22 0.33 0.49 0.73 1.06 1.48 2.01 1.97 1.85 1.98 2.21 2.24 2.29 2.55 2.65 2.74 3.06 3.34 3.54 3.65 3.62 3.60 3.48 3.49 3.47 3.37 3.11 2.96 2.93 2.80 2.69 2.49 2.29 2.04 1.82
0.00 0.00 0.01 0.03 0.02 0.02 0.06 0.10 0.12 0.14 0.14 0.20 0.29 0.34 0.36 0.41 0.63 0.91 1.25 1.78 2.24 2.41 2.44 2.45 2.66 2.89 3.04 3.22 3.56 3.91 4.21 4.45 4.64 4.69 4.27 4.06 3.95 3.88 3.84 3.82 3.72 3.46 3.27 3.06 2.80 2.66 2.48 2.12 1.85
0.00 0.00 0.02 0.05 0.04 0.05 0.09 0.19 0.23 0.23 0.26 0.32 0.44 0.57 0.71 0.71 0.93 1.19 1.45 1.87 2.25 2.42 2.55 2.65 2.88 3.30 3.75 4.09 4.48 4.89 5.11 5.21 5.02 4.76 4.64 4.50 4.38 4.26 4.12 3.96 3.69 3.47 3.30 3.16 2.94 2.67 2.49 2.20 1.93
0.01 0.01 0.01 0.02 0.04 0.07 0.10 0.25 0.45 0.43 0.44 0.51 0.62 0.60 0.67 0.84 1.09 1.34 1.62 1.91 2.22 2.42 2.53 2.81 3.31 3.94 4.48 4.89 5.35 5.84 5.99 5.83 5.53 5.12 4.76 4.53 4.27 3.96 3.71 3.56 3.43 3.24 2.93 2.68 2.54 2.35 2.08 1.89 1.74
0.01 0.01 0.01 0.01 0.01 0.05 0.08 0.21 0.60 0.67 0.66 0.71 0.82 0.70 0.65 0.68 0.89 1.18 1.44 1.67 1.98 2.15 2.39 2.76 3.35 4.05 4.77 5.53 6.14 6.52 6.46 6.16 5.77 5.14 4.56 4.07 3.71 3.41 3.16 3.01 2.83 2.57 2.22 1.89 1.77 1.78 1.76 1.64 1.51
0.00 0.00 0.01 0.01 0.01 0.04 0.06 0.19 0.62 0.94 1.02 0.98 0.78 0.68 0.61 0.59 0.66 0.80 0.94 1.15 1.40 1.76 2.13 2.55 3.14 3.86 4.54 5.20 5.70 5.80 5.72 5.57 5.12 4.46 3.86 3.49 3.17 2.86 2.51 2.20 1.91 1.69 1.51 1.31 1.26 1.28 1.33 1.40 1.39
0.01 0.02 0.07 0.10 0.13 0.11 0.10 0.26 0.68 1.00 1.15 1.00 0.76 0.62 0.50 0.49 0.53 0.58 0.67 0.89 1.17 1.45 1.79 2.23 2.67 3.24 3.70 4.07 4.47 4.58 4.58 4.45 4.20 3.79 3.39 2.99 2.51 2.17 1.88 1.58 1.39 1.25 1.16 1.10 1.03 0.99 1.01 1.09 1.16
0.01 0.02 0.10 0.19 0.17 0.21 0.27 0.51 0.87 0.91 0.91 0.76 0.64 0.57 0.49 0.48 0.51 0.57 0.67 0.81 1.06 1.31 1.55 1.77 2.05 2.40 2.56 2.63 2.83 3.01 3.02 3.05 2.98 2.74 2.51 2.25 1.91 1.59 1.33 1.11 0.95 0.85 0.82 0.81 0.81 0.82 0.84 0.87 0.92
0.02 0.02 0.04 0.07 0.08 0.22 0.48 0.74 1.03 0.86 0.73 0.66 0.65 0.57 0.51 0.51 0.51 0.56 0.62 0.70 0.83 0.99 1.11 1.20 1.33 1.50 1.58 1.66 1.68 1.75 1.82 1.84 1.80 1.70 1.53 1.35 1.19 1.00 0.86 0.73 0.66 0.62 0.60 0.56 0.53 0.56 0.61 0.68 0.72
0.04 0.04 0.06 0.10 0.20 0.36 0.56 0.86 1.18 1.17 0.98 0.78 0.64 0.52 0.44 0.45 0.48 0.50 0.55 0.60 0.66 0.72 0.79 0.84 0.88 0.99 1.09 1.15 1.16 1.16 1.16 1.12 1.04 0.98 0.94 0.85 0.75 0.68 0.61 0.52 0.47 0.43 0.41 0.37 0.34 0.35 0.37 0.41 0.48
0.06 0.06 0.09 0.14 0.16 0.34 0.64 1.11 1.30 1.50 1.41 0.99 0.70 0.55 0.47 0.46 0.47 0.51 0.54 0.48 0.48 0.51 0.57 0.63 0.68 0.72 0.77 0.81 0.84 0.84 0.80 0.75 0.70 0.67 0.65 0.60 0.51 0.44 0.39 0.34 0.31 0.30 0.27 0.26 0.27 0.30 0.32 0.34 0.36
0.06 0.08 0.14 0.31 0.32 0.30 0.62 1.37 1.61 1.78 1.67 1.27 0.94 0.76 0.69 0.59 0.56 0.59 0.56 0.49 0.46 0.49 0.51 0.54 0.56 0.59 0.64 0.60 0.60 0.64 0.58 0.52 0.49 0.46 0.41 0.38 0.36 0.32 0.28 0.24 0.22 0.23 0.24 0.22 0.22 0.24 0.26 0.28 0.29